Air Resources Laboratory banner image
Air Resources Laboratory web site National Oceanic and Atmospheric Administration (NOAA)

nd roundup


Office: BIS

ASUS43 KBIS 182302
RWRBIS

NWR BROADCAST TEXT
NATIONAL WEATHER SERVICE BISMARCK ND
500 PM CST TUE DEC 18 2018

NOTE: "FAIR" INDICATES FEW OR NO CLOUDS BELOW 12,000 FEET WITH NO
SIGNIFICANT WEATHER AND/OR OBSTRUCTIONS TO VISIBILITY.


CITY           SKY/WX    TMP DP  RH WIND       PRES   REMARKS
WILLISTON      MOCLDY    43  28  55 SW3       29.63S
MINOT          CLOUDY    45  31  58 S8        29.64S
MINOT AFB      CLOUDY    41  31  68 SW9       29.62S
BISMARCK       CLEAR     39  30  70 SE8       29.71F
DICKINSON      PTCLDY    40  26  57 S10       29.65F
GARRISON         N/A     40  29  64 S6        29.66F
HETTINGER ARPT CLEAR     46  27  47 S6        29.72F
JAMESTOWN      CLEAR     44  31  60 SW3       29.73S
CARRINGTON     FAIR      36  30  80 S7        29.73S
HAZEN            N/A     45  34  65 S12       29.68F
LINTON           N/A     41  28  60 SE8       29.74F
MANDAN         FAIR      43  34  70 S8        29.71S
OAKES          FAIR      34  32  93 S8        29.76F
RUGBY          FAIR      36  32  87 SE9       29.66F
STANLEY        FAIR      39  32  75 S9        29.63S
TIOGA          FAIR      37  34  87 SW8       29.63S
WATFORD CITY   FAIR      43  30  61 SW5       29.63S
$$

CITY           SKY/WX    TMP DP  RH WIND       PRES   REMARKS
GRAND FORKS    PTCLDY    30  26  85 S9        29.73S
GRAND FORKS AF PTCLDY    34  29  83 S7        29.72S
DEVILS LAKE    CLEAR     34  27  75 CALM      29.70F
FARGO          PTCLDY    38  30  73 S8        29.75F
CANDO          FAIR      28  28 100 S6        29.70S
CAVALIER       FAIR      32  27  80 S6        29.69R
GRAFTON        FAIR      32  28  86 S10       29.72F
GWINNER          N/A     36  32  87 S8        29.77S
LANGDON        FAIR      27  27 100 S10       29.68S WCI  17
ROLLA          FAIR      32  28  86 SW13      29.66S
WALHALLA         N/A     34  28  80 S3        29.69S
$$

CITY           SKY/WX    TMP DP  RH WIND       PRES   REMARKS
ABERDEEN       CLEAR     40  30  67 CALM      29.78S
MOBRIDGE       CLEAR     44  28  53 SE7       29.72F
BUFFALO          N/A     47  29  49 CALM      29.69F
RAPID CITY     CLEAR     45  25  45 SE6       29.74F
GLASGOW        CLOUDY    37  31  78 E9        29.58F
SIDNEY         PTCLDY    45  29  53 W10       29.64S
WOLF POINT     MOCLDY    35  29  78 NE3       29.61F
GLENDIVE       MOCLDY    43  27  53 SW8       29.65F
MILES CITY     PTCLDY    44  33  65 S8        29.65S
BAKER          PTCLDY    44  30  57 S6        29.68F
$$

CITY           SKY/WX    TMP DP  RH WIND       PRES   REMARKS
BILLINGS       MOCLDY    52  24  33 W10       29.70R
GREAT FALLS    MOCLDY    48  32  53 SW20G30   29.63R
$$



ASUS43 KBIS 182302
RWRND

NORTH DAKOTA REGIONAL WEATHER ROUNDUP
NATIONAL WEATHER SERVICE BISMARCK ND
500 PM CST TUE DEC 18 2018

NOTE: "FAIR" INDICATES FEW OR NO CLOUDS BELOW 12,000 FEET WITH NO
SIGNIFICANT WEATHER AND/OR OBSTRUCTIONS TO VISIBILITY.


NDZ001>003-009>011-017-190000-
NORTHWEST NORTH DAKOTA

CITY           SKY/WX    TMP DP  RH WIND       PRES   REMARKS
WILLISTON      MOCLDY    43  28  55 SW3       29.63S
MINOT          CLOUDY    45  31  58 S8        29.64S
MINOT AFB      CLOUDY    41  31  68 SW9       29.62S
$$

NDZ018>021-031>035-040>046-190000-
SOUTHWEST NORTH DAKOTA

CITY           SKY/WX    TMP DP  RH WIND       PRES   REMARKS
BISMARCK       CLEAR     39  30  70 SE8       29.71F
DICKINSON      PTCLDY    40  26  57 S10       29.65F
GARRISON         N/A     40  29  64 S6        29.66F
HETTINGER ARPT CLEAR     46  27  47 S6        29.72F
$$

NDZ004>008-012>016-024-026-027-054-190000-
NORTHEAST NORTH DAKOTA

CITY           SKY/WX    TMP DP  RH WIND       PRES   REMARKS
GRAND FORKS    PTCLDY    30  26  85 S9        29.73S
GRND FRKS AFB  PTCLDY    34  29  83 S7        29.72S
DEVILS LAKE    CLEAR     34  27  75 CALM      29.70F
$$

NDZ022-023-025-028>030-036>039-047>053-190000-
SOUTHEAST NORTH DAKOTA

CITY           SKY/WX    TMP DP  RH WIND       PRES   REMARKS
FARGO          PTCLDY    38  30  73 S8        29.75F
JAMESTOWN      CLEAR     44  31  60 SW3       29.73S
$$



ASUS43 KBIS 182310
RWRND

NORTH DAKOTA REGIONAL WEATHER ROUNDUP
NATIONAL WEATHER SERVICE BISMARCK ND
500 PM CST TUE DEC 18 2018

NOTE: "FAIR" INDICATES FEW OR NO CLOUDS BELOW 12,000 FEET WITH NO
SIGNIFICANT WEATHER AND/OR OBSTRUCTIONS TO VISIBILITY.


NDZ001>003-009>011-017-190000-
NORTHWEST NORTH DAKOTA

CITY           SKY/WX    TMP DP  RH WIND       PRES   REMARKS
WILLISTON      MOCLDY    43  28  55 SW3       29.63S
MINOT          CLOUDY    45  31  58 S8        29.64S
MINOT AFB      CLOUDY    41  31  68 SW9       29.62S
$$

NDZ018>021-031>035-040>046-190000-
SOUTHWEST NORTH DAKOTA

CITY           SKY/WX    TMP DP  RH WIND       PRES   REMARKS
BISMARCK       CLEAR     39  30  70 SE8       29.71F
DICKINSON      PTCLDY    40  26  57 S10       29.65F
GARRISON         N/A     40  29  64 S6        29.66F
HETTINGER ARPT CLEAR     46  27  47 S6        29.72F
$$

NDZ004>008-012>016-024-026-027-054-190000-
NORTHEAST NORTH DAKOTA

CITY           SKY/WX    TMP DP  RH WIND       PRES   REMARKS
GRAND FORKS    PTCLDY    30  26  85 S9        29.73S
GRND FRKS AFB  PTCLDY    34  29  83 S7        29.72S
DEVILS LAKE    CLEAR     34  27  75 CALM      29.70F
$$

NDZ022-023-025-028>030-036>039-047>053-190000-
SOUTHEAST NORTH DAKOTA

CITY           SKY/WX    TMP DP  RH WIND       PRES   REMARKS
FARGO          PTCLDY    38  30  73 S8        29.75F
JAMESTOWN      CLEAR     44  31  60 SW3       29.73S
$$



ASUS43 KBIS 182310
RWRBIS

NWR BROADCAST TEXT
NATIONAL WEATHER SERVICE BISMARCK ND
500 PM CST TUE DEC 18 2018

NOTE: "FAIR" INDICATES FEW OR NO CLOUDS BELOW 12,000 FEET WITH NO
SIGNIFICANT WEATHER AND/OR OBSTRUCTIONS TO VISIBILITY.


CITY           SKY/WX    TMP DP  RH WIND       PRES   REMARKS
WILLISTON      MOCLDY    43  28  55 SW3       29.63S
MINOT          CLOUDY    45  31  58 S8        29.64S
MINOT AFB      CLOUDY    41  31  68 SW9       29.62S
BISMARCK       CLEAR     39  30  70 SE8       29.71F
DICKINSON      PTCLDY    40  26  57 S10       29.65F
GARRISON         N/A     40  29  64 S6        29.66F
HETTINGER ARPT CLEAR     46  27  47 S6        29.72F
JAMESTOWN      CLEAR     44  31  60 SW3       29.73S
CARRINGTON     FAIR      36  30  80 S7        29.73S
HAZEN            N/A     45  34  65 S12       29.68F
LINTON           N/A     41  28  60 SE8       29.74F
MANDAN         FAIR      43  34  70 S8        29.71S
OAKES          FAIR      34  32  93 S8        29.76F
RUGBY          FAIR      36  32  87 SE9       29.66F
STANLEY        FAIR      39  32  75 S9        29.63S
TIOGA          FAIR      37  34  87 SW8       29.63S
WATFORD CITY   FAIR      43  30  61 SW5       29.63S
$$

CITY           SKY/WX    TMP DP  RH WIND       PRES   REMARKS
GRAND FORKS    PTCLDY    30  26  85 S9        29.73S
GRAND FORKS AF PTCLDY    34  29  83 S7        29.72S
DEVILS LAKE    CLEAR     34  27  75 CALM      29.70F
FARGO          PTCLDY    38  30  73 S8        29.75F
CANDO          FAIR      28  28 100 S6        29.70S
CAVALIER       FAIR      30  27  86 S6        29.69S
GRAFTON        FAIR      32  28  86 S10       29.72F
GWINNER          N/A     36  32  87 S8        29.77S
LANGDON        FAIR      27  27 100 S10       29.68S WCI  17
ROLLA          FAIR      32  28  86 SW13      29.66S
WALHALLA         N/A     34  28  80 S3        29.69S
$$

CITY           SKY/WX    TMP DP  RH WIND       PRES   REMARKS
ABERDEEN       CLEAR     40  30  67 CALM      29.78S
MOBRIDGE       CLEAR     44  28  53 SE7       29.72F
BUFFALO          N/A     47  29  49 CALM      29.69F
RAPID CITY     CLEAR     45  25  45 SE6       29.74F
GLASGOW        CLOUDY    37  31  78 E9        29.58F
SIDNEY         PTCLDY    45  29  53 W10       29.64S
WOLF POINT     MOCLDY    35  29  78 NE3       29.61F
GLENDIVE       MOCLDY    43  27  53 SW8       29.65F
MILES CITY     PTCLDY    44  33  65 S8        29.65S
BAKER          PTCLDY    44  30  57 S6        29.68F
$$

CITY           SKY/WX    TMP DP  RH WIND       PRES   REMARKS
BILLINGS       MOCLDY    52  24  33 W10       29.70R
GREAT FALLS    MOCLDY    48  32  53 SW20G30   29.63R
REGINA         MOCLDY    36  30  80 S9        29.50F
ESTEVAN        CLEAR     37  30  75 SW10      29.59F
$$





Office: FGF ASUS43 KFGF 182310 RWRFGF PRAIRIE TO PINES WEATHER ROUNDUP NATIONAL WEATHER SERVICE EASTERN NORTH DAKOTA/GRAND FORKS ND 500 PM CST TUE DEC 18 2018 **SATELLITE DATA USED TO AUGMENT SKY COVER AT AUTOMATED STATIONS** ***** WEATHER ACROSS EASTERN NORTH DAKOTA ***** CITY SKY/WX TMP DP RH WIND PRES REMARKS GRAND FORKS FAIR 30 26 85 S9 29.73S WCI 22 GRAND FRKS AFB PTCLDY 34 29 83 S7 29.72S GRAND FRKS NWS N/A 32 29 88 SW2 29.70S DEVILS LAKE FAIR 34 27 75 CALM 29.70F FARGO FAIR 38 30 73 S8 29.75F WAHPETON ARPT FAIR 36 28 75 SE6 29.79S $$ ***** WEATHER ACROSS CENTRAL AND WESTERN NORTH DAKOTA ***** CITY SKY/WX TMP DP RH WIND PRES REMARKS BISMARCK FAIR 39 30 70 SE8 29.71F MINOT FAIR 45 31 58 S8 29.64S JAMESTOWN FAIR 44 31 60 SW3 29.73S MINOT AFB FAIR 41 31 68 SW9 29.62S GARRISON N/A 40 29 64 S6 29.66F WILLISTON FAIR 43 28 55 SW3 29.63S DICKINSON FAIR 40 26 57 S10 29.65F HETTINGER FAIR 46 27 47 S6 29.72F $$ ***** OTHER AIRPORT OBSERVATIONS IN OUR AREA ***** CITY SKY/WX TMP DP RH WIND PRES REMARKS WALHALLA N/A 34 28 80 S3 29.69S GRAFTON AIRPOR FAIR 32 28 86 S10 29.72F WCI 24 VALLEY CITY AR FAIR 36 34 93 SW9 29.74F CANDO FAIR 28 28 100 S6 29.70S WCI 22 CAVALIER APRT FAIR 30 27 86 S6 29.69S WCI 24 GWINNER N/A 36 32 87 S8 29.77S SHEYENNE NWR N/A 38 28 68 S6 29.95S ROLLA FAIR 32 28 86 SW13 29.66S WCI 22 ***** THE ABOVE OBSERVATIONS ARE NON NWS ARE NOT QUALITY CONTROLLED AND MAY MIS-REPORT RAIN FOR SNOW... $$ ***** WEATHER ACROSS NORTHERN MINNESOTA ***** CITY SKY/WX TMP DP RH WIND PRES REMARKS FLAG ISLAND FAIR 21 18 86 S8 29.69S WCI 12 WARROAD FAIR 28 25 86 SW3 29.71S ROSEAU FAIR 28 23 80 S6 29.71S WCI 22 HALLOCK FAIR 25 21 86 S10 29.70S WCI 15 THF RVR FALLS FAIR 25 22 88 S10 29.73F WCI 15 BAUDETTE FAIR 31 23 72 S6 29.70S WASKISH FAIR 32 25 74 CALM 29.73S CROOKSTON FAIR 25 21 86 S6 29.75S WCI 18 STEPHEN NDAWN N/A 25 21 86 SE8 N/A WCI 16 GREENBUSH NDAW N/A 25 21 86 S5 N/A WCI 19 $$ ***** WEATHER ACROSS CENTRAL AND WEST MINNESOTA ***** CITY SKY/WX TMP DP RH WIND PRES REMARKS FOSSTON FAIR 28 25 86 S7 29.75S WCI 21 BEMIDJI FAIR 32 25 74 S5 29.73F PARK RAPIDS FAIR 28 23 81 SW5 29.76S WCI 23 ELBOW LAKE FAIR 33 28 83 S5 29.81R WADENA FAIR 32 27 80 CALM 29.78S DETROIT LAKES FAIR 32 28 86 S3 29.78R MOORHEAD FAIR 36 28 75 S8 29.77F FERGUS FALLS FAIR 32 27 80 S7 29.82F MORRIS MN FAIR 34 28 80 CALM 29.80R STAPLES FAIR 30 27 86 CALM 29.79R $$ ***** WEATHER ELSEWHERE ACROSS MINNESOTA ***** CITY SKY/WX TMP DP RH WIND PRES REMARKS DULUTH FAIR 34 26 72 SW8 29.77S INTRNTL FALLS FAIR 28 22 78 VRB5 29.73S WCI 23 ELY FAIR 27 19 74 CALM 29.75S CLOQUET FAIR 34 27 75 S3 29.78S WHEATON FAIR 36 28 75 SE5 29.82R BRAINERD FAIR 32 25 75 S5 29.80R HIBBING FAIR 25 21 85 CALM 29.77R ALEXANDRIA FAIR 34 26 72 S3 29.80R SAINT CLOUD FAIR 36 30 79 CALM 29.81F MINNEAPOLIS CLOUDY 40 30 67 S6 29.85S $$ ***** WEATHER ACROSS SOUTH DAKOTA ***** CITY SKY/WX TMP DP RH WIND PRES REMARKS SIOUX FALLS MOCLDY 38 32 79 S7 29.81S BROOKINGS FAIR 39 32 76 SE3 29.80S WATERTOWN FAIR 37 32 82 CALM 29.78S HURON FAIR 36 30 79 SE5 29.79S SISSETON N/A 37 29 72 SE5 29.79R ABERDEEN FAIR 40 30 67 CALM 29.78S MITCHELL FAIR 38 30 73 SE3 29.81S PIERRE FAIR 46 29 51 S5 29.76S MOBRIDGE FAIR 44 28 53 SE7 29.72F RAPID CITY FAIR 45 25 45 SE6 29.74F $$ ***** SOME WEATHER IN NEARBY STATES ***** CITY SKY/WX TMP DP RH WIND PRES REMARKS GLASGOW MT FAIR 37 31 78 E9 29.58F GREAT FALLS MT FAIR 48 32 53 SW20G30 29.63R CHEYENNE WY FAIR 44 19 36 W20G30 29.89R SCOTTSBLUFF NE FAIR 51 26 37 W18G31 29.83F OMAHA NE CLOUDY 44 36 73 S9 29.87R DES MOINES IA FAIR 48 32 53 S9 29.91F DAVENPORT IA FAIR 42 28 57 S14 30.03S CHICAGO IL FAIR 38 28 67 S8 30.09S EAU CLAIRE WI FAIR 38 28 67 S7 29.86S LA CROSSE WI FAIR 42 28 57 S8 29.90F $$ ***** SOME NATIONAL WEATHER ***** CITY SKY/WX TMP DP RH WIND PRES REMARKS LA GUARDIA NY FAIR 34 16 47 NW14 30.12R WCI 25 RALEIGH NC FAIR 44 31 60 CALM 30.15S ATLANTA GA MOCLDY 58 29 33 W3 30.06S NEW ORLEANS LA CLOUDY 62 52 69 CALM 30.08S OKLAHOMA CITY MOCLDY 51 37 58 SE5 29.94F ALBUQUERQUE NM FAIR 54 24 31 NW16G24 30.01R SALT LAKE CITY CLOUDY 47 34 60 W5 30.16R LOS ANGELES CA FAIR 62 55 77 W10 30.16F BOISE ID NOT AVBL SEATTLE WA MOCLDY 51 42 71 S18G30 29.80R $$ *** WEATHER ACROSS MANITOBA...SASKATCHEWAN AND ONTARIO *** ***ONTARIO*** CITY SKY/WX TMP DP RH WIND PRES REMARKS GERALDTON CLOUDY 30 23 74 SW13G21 29.71F WCI 20 THUNDER BAY PTCLDY 25 21 86 W2 29.76S SIOUX LOOKOUT MOCLDY 23 19 86 S5 29.69S WCI 17 TORONTO PTCLDY 28 18 64 S3 30.17S BIG TROUT LK CLOUDY 23 19 86 SW12 29.53R WCI 12 PICKLE LAKE MOCLDY 23 18 80 SW8 29.63S WCI 14 DRYDEN CLEAR 23 19 86 S8 29.68S WCI 14 KENORA PTCLDY 23 18 80 S7 29.68F WCI 15 $$ *** MANITOBA*** CITY SKY/WX TMP DP RH WIND PRES REMARKS BRANDON MOCLDY 25 21 86 W7 29.63F WCI 17 DAUPHIN MOCLDY 37 28 70 SW8 29.54F ISLAND LAKE MOCLDY 27 19 74 SW8 29.53R WCI 18 PILOT MOUND N/A 25 21 86 S9 N/A WCI 15 THE PAS CLOUDY 23 19 86 E3 29.44F THOMPSON FLURRIES 19 18 93 W6 29.47R WCI 11 WINNIPEG MOCLDY 25 21 86 S9 29.66S WCI 15 LYNN LAKE FLURRIES 16 14 93 N7 29.43S WCI 6 CHURCHILL LGT SNOW 12 10 92 W3 29.44R GILLAM LGT SNOW 18 14 86 W8 29.45R WCI 7 $$ ***SASKATCHEWAN*** CITY SKY/WX TMP DP RH WIND PRES REMARKS ESTEVAN CLEAR 37 30 75 SW10 29.59F KINDERSLEY MOCLDY 32 28 86 SW18 29.39S WCI 20 LLOYDMINSTER PTCLDY 25 18 74 W8 29.35R WCI 16 PRINCE ALBERT PTCLDY 16 12 86 SW3 29.40S REGINA MOCLDY 36 30 80 S9 29.50F YORKTON CLOUDY 34 28 80 S12 29.49F N. BATTLEFORD MOCLDY 28 23 80 CALM 29.39F LA RONGE CLOUDY 21 19 93 NE2 29.36F SASKATOON MOCLDY 34 28 80 SW12 29.40F SWIFT CURRENT CLOUDY 37 30 75 SW13G18 29.45F $$ NOTE: THESE ARE AUTOMATED STATIONS WITH LIMITED QUALITY CONTROL "FAIR" INDICATES FEW OR NO CLOUDS BELOW 12,000 FEET WITH NO SIGNIFICANT WEATHER AND/OR OBSTRUCTIONS TO VISIBILITY. SKY/WX - SKY CONDITION AND SIGNIFICANT WEATHER. TMP - AIR TEMPERATURE. DP - DEWPOINT TEMPERATURE. RH - RELATIVE HUMIDITY. PRES - PRESSURE. HX - HEAT INDEX. WCI - WIND CHILL INDEX. $ ASUS43 KFGF 182331 RWRFGF PRAIRIE TO PINES WEATHER ROUNDUP NATIONAL WEATHER SERVICE EASTERN NORTH DAKOTA/GRAND FORKS ND 500 PM CST TUE DEC 18 2018 **SATELLITE DATA USED TO AUGMENT SKY COVER AT AUTOMATED STATIONS** ***** WEATHER ACROSS EASTERN NORTH DAKOTA ***** CITY SKY/WX TMP DP RH WIND PRES REMARKS GRAND FORKS FAIR 30 26 85 S9 29.73S WCI 22 GRAND FRKS AFB PTCLDY 34 29 83 S7 29.72S GRAND FRKS NWS N/A 32 28 85 S12 29.69F WCI 23 DEVILS LAKE FAIR 34 27 75 CALM 29.70F FARGO FAIR 38 30 73 S8 29.75F WAHPETON ARPT FAIR 34 28 80 S9 29.78F $$ ***** WEATHER ACROSS CENTRAL AND WESTERN NORTH DAKOTA ***** CITY SKY/WX TMP DP RH WIND PRES REMARKS BISMARCK FAIR 39 30 70 SE8 29.71F MINOT FAIR 45 31 58 S8 29.64S JAMESTOWN FAIR 44 31 60 SW3 29.73S MINOT AFB FAIR 41 31 68 SW9 29.62S GARRISON N/A 40 29 64 S6 29.66F WILLISTON FAIR 43 28 55 SW3 29.63S DICKINSON FAIR 40 26 57 S10 29.65F HETTINGER FAIR 46 27 47 S6 29.72F $$ ***** OTHER AIRPORT OBSERVATIONS IN OUR AREA ***** CITY SKY/WX TMP DP RH WIND PRES REMARKS WALHALLA N/A 30 30 100 S6 29.68S WCI 24 GRAFTON AIRPOR FAIR 32 30 93 SW10 29.72S WCI 24 VALLEY CITY AR FAIR 37 34 87 SW9 29.74F CANDO FAIR 27 27 100 S6 29.70S WCI 20 CAVALIER APRT FAIR 27 25 93 S8 29.69S WCI 18 GWINNER N/A 32 30 93 SW8 29.76S WCI 25 SHEYENNE NWR N/A 38 28 68 S6 29.95S ROLLA FAIR 34 28 80 SW12 29.65F ***** THE ABOVE OBSERVATIONS ARE NON NWS ARE NOT QUALITY CONTROLLED AND MAY MIS-REPORT RAIN FOR SNOW... $$ ***** WEATHER ACROSS NORTHERN MINNESOTA ***** CITY SKY/WX TMP DP RH WIND PRES REMARKS FLAG ISLAND FAIR 18 16 93 S6 29.69S WCI 9 WARROAD FAIR 27 21 80 S3 29.71S ROSEAU FAIR 27 21 80 S7 29.70F WCI 19 HALLOCK FAIR 23 21 93 S8 29.70S WCI 14 THF RVR FALLS FAIR 25 22 88 S10 29.73F WCI 15 BAUDETTE FAIR 31 23 72 S6 29.70S WASKISH FAIR 25 21 86 CALM 29.72F CROOKSTON FAIR 23 21 93 S7 29.75S WCI 15 STEPHEN NDAWN N/A 25 21 86 SE8 N/A WCI 16 GREENBUSH NDAW N/A 25 21 86 S5 N/A WCI 19 $$ ***** WEATHER ACROSS CENTRAL AND WEST MINNESOTA ***** CITY SKY/WX TMP DP RH WIND PRES REMARKS FOSSTON FAIR 27 25 93 S7 29.74F WCI 19 BEMIDJI FAIR 30 24 79 CALM 29.73F PARK RAPIDS FAIR 28 23 81 SW5 29.76S WCI 23 ELBOW LAKE FAIR 32 28 85 S6 29.81S WADENA FAIR 28 25 86 S3 29.77F DETROIT LAKES FAIR 32 28 86 S5 29.77F MOORHEAD FAIR 36 28 75 S8 29.77S FERGUS FALLS FAIR 30 27 86 S8 29.81F WCI 23 MORRIS MN FAIR 34 30 86 CALM 29.80S STAPLES FAIR 30 27 86 S5 29.78F $$ ***** WEATHER ELSEWHERE ACROSS MINNESOTA ***** CITY SKY/WX TMP DP RH WIND PRES REMARKS DULUTH FAIR 34 26 72 SW8 29.77S INTRNTL FALLS FAIR 28 22 78 VRB5 29.73S WCI 23 ELY FAIR 27 19 74 CALM 29.75S CLOQUET FAIR 34 27 75 SW3 29.78S WHEATON FAIR 36 28 75 SE7 29.82R BRAINERD FAIR 32 25 75 S5 29.80R HIBBING FAIR 25 21 85 CALM 29.77R ALEXANDRIA FAIR 34 26 72 S3 29.80R SAINT CLOUD FAIR 36 30 79 CALM 29.81F MINNEAPOLIS CLOUDY 40 30 67 S6 29.85S $$ ***** WEATHER ACROSS SOUTH DAKOTA ***** CITY SKY/WX TMP DP RH WIND PRES REMARKS SIOUX FALLS MOCLDY 38 32 79 S7 29.81S BROOKINGS FAIR 39 32 76 SE3 29.80S WATERTOWN FAIR 37 32 82 CALM 29.78S HURON FAIR 36 30 79 SE5 29.79S SISSETON N/A 37 29 72 SE5 29.79R ABERDEEN FAIR 40 30 67 CALM 29.78S MITCHELL FAIR 38 30 73 SE3 29.81S PIERRE FAIR 46 29 51 S5 29.76S MOBRIDGE FAIR 44 28 53 SE7 29.72F RAPID CITY FAIR 45 25 45 SE6 29.74F $$ ***** SOME WEATHER IN NEARBY STATES ***** CITY SKY/WX TMP DP RH WIND PRES REMARKS GLASGOW MT FAIR 37 31 78 E9 29.58F GREAT FALLS MT FAIR 48 32 53 SW20G30 29.63R CHEYENNE WY FAIR 44 19 36 W20G30 29.89R SCOTTSBLUFF NE FAIR 51 26 37 W18G31 29.83F OMAHA NE CLOUDY 44 36 73 S9 29.87R DES MOINES IA FAIR 48 32 53 S9 29.91F DAVENPORT IA FAIR 42 28 57 S14 30.03S CHICAGO IL FAIR 38 28 67 S8 30.09S EAU CLAIRE WI FAIR 38 28 67 S7 29.86S LA CROSSE WI FAIR 42 28 57 S8 29.90F $$ ***** SOME NATIONAL WEATHER ***** CITY SKY/WX TMP DP RH WIND PRES REMARKS LA GUARDIA NY FAIR 34 16 47 NW14 30.12R WCI 25 RALEIGH NC FAIR 44 31 60 CALM 30.15S ATLANTA GA MOCLDY 58 29 33 W3 30.06S NEW ORLEANS LA CLOUDY 62 52 69 CALM 30.08S OKLAHOMA CITY MOCLDY 51 37 58 SE5 29.94F ALBUQUERQUE NM FAIR 54 24 31 NW16G24 30.01R SALT LAKE CITY CLOUDY 47 34 60 W5 30.16R LOS ANGELES CA FAIR 62 55 77 W10 30.16F BOISE ID NOT AVBL SEATTLE WA MOCLDY 51 42 71 S18G30 29.80R $$ *** WEATHER ACROSS MANITOBA...SASKATCHEWAN AND ONTARIO *** ***ONTARIO*** CITY SKY/WX TMP DP RH WIND PRES REMARKS GERALDTON CLOUDY 30 23 74 SW13G21 29.71F WCI 20 THUNDER BAY PTCLDY 25 21 86 W2 29.76S SIOUX LOOKOUT MOCLDY 23 19 86 S5 29.69S WCI 17 TORONTO PTCLDY 28 18 64 S3 30.17S BIG TROUT LK CLOUDY 23 19 86 SW12 29.53R WCI 12 PICKLE LAKE MOCLDY 23 18 80 SW8 29.63S WCI 14 DRYDEN CLEAR 23 19 86 S8 29.68S WCI 14 KENORA PTCLDY 23 18 80 S7 29.68F WCI 15 $$ *** MANITOBA*** CITY SKY/WX TMP DP RH WIND PRES REMARKS BRANDON MOCLDY 25 21 86 W7 29.63F WCI 17 DAUPHIN MOCLDY 37 28 70 SW8 29.54F ISLAND LAKE MOCLDY 27 19 74 SW8 29.53R WCI 18 PILOT MOUND N/A 25 21 86 S9 N/A WCI 15 THE PAS CLOUDY 23 19 86 E3 29.44F THOMPSON FLURRIES 19 18 93 W6 29.47R WCI 11 WINNIPEG MOCLDY 25 21 86 S9 29.66S WCI 15 LYNN LAKE FLURRIES 16 14 93 N7 29.43S WCI 6 CHURCHILL LGT SNOW 12 10 92 W3 29.44R GILLAM LGT SNOW 18 14 86 W8 29.45R WCI 7 $$ ***SASKATCHEWAN*** CITY SKY/WX TMP DP RH WIND PRES REMARKS ESTEVAN CLEAR 37 30 75 SW10 29.59F KINDERSLEY MOCLDY 32 28 86 SW18 29.39S WCI 20 LLOYDMINSTER PTCLDY 25 18 74 W8 29.35R WCI 16 PRINCE ALBERT PTCLDY 16 12 86 SW3 29.40S REGINA MOCLDY 36 30 80 S9 29.50F YORKTON CLOUDY 34 28 80 S12 29.49F N. BATTLEFORD MOCLDY 28 23 80 CALM 29.39F LA RONGE CLOUDY 21 19 93 NE2 29.36F SASKATOON MOCLDY 34 28 80 SW12 29.40F SWIFT CURRENT CLOUDY 37 30 75 SW13G18 29.45F $$ NOTE: THESE ARE AUTOMATED STATIONS WITH LIMITED QUALITY CONTROL "FAIR" INDICATES FEW OR NO CLOUDS BELOW 12,000 FEET WITH NO SIGNIFICANT WEATHER AND/OR OBSTRUCTIONS TO VISIBILITY. SKY/WX - SKY CONDITION AND SIGNIFICANT WEATHER. TMP - AIR TEMPERATURE. DP - DEWPOINT TEMPERATURE. RH - RELATIVE HUMIDITY. PRES - PRESSURE. HX - HEAT INDEX. WCI - WIND CHILL INDEX. $